Location: Bourg-d�Oueil
(42.8588°N, 0.4991°E)
Time: 00:32:11
(UTC+00:00)

GEOS 3 Rocket - Pass Details

Date: 16 June 2021
Orbit: 780 x 839 km, 115.0° (Epoch: 04 August)

Event Time Altitude Azimuth Distance (km) Brightness Sun altitude
Exits shadow 22:36:03 36° 123° (ESE) 1,303 4.3 -21.1°
Maximum altitude 22:38:15 70° 50° (NE) 892 3.8 -21.2°
Drops below altitude 10° 22:43:34 10° 328° (NNW) 2,452 7.2 -21.5°
Sets 22:45:53 0° 326° (NW) 3,384 8.2 -21.7°
